Wind_Speed
9 10 11 12 13 15 15 16 17 18 17 18 17 18 17 18 14 4 5 3 6 11 15 15 9 14 5 2 0 3 1 3 6 5 4 7 6 5 5 5 4 6 4 5 24
10 11 13 14 15 17 18 18 18 19 18 16 17 17 15 15 6 5 2 4 8 11 11 8 6 11 4 3 2 3 3 7 7 3 4 6 4 4 6 10 5 12 5 17 21
11 13 15 17 18 19 20 20 20 19 18 18 17 15 13 9 2 1 3 7 9 11 10 8 5 2 3 2 2 3 5 4 3 5 5 4 5 3 5 16 6 11 11 10 11
12 14 16 18 20 21 23 21 20 19 18 17 14 13 12 2 2 1 4 10 10 11 9 5 3 3 3 4 2 4 7 6 4 3 4 5 6 8 10 16 14 13 8 7 8
13 16 18 20 23 24 25 20 20 23 18 12 10 11 3 3 1 2 7 12 14 9 9 3 2 2 3 3 5 9 8 8 8 7 9 9 13 13 15 17 14 13 14 10 9
14 16 19 22 25 27 26 23 24 21 10 6 7 6 2 2 0 5 10 13 14 11 10 5 5 5 5 6 6 4 5 8 9 13 12 13 20 5 15 12 14 11 11 11 15
15 18 20 23 27 29 23 26 27 14 5 4 4 2 3 4 3 9 13 15 18 11 5 11 9 5 3 5 7 6 12 16 16 17 11 9 11 11 14 13 15 16 8 11 15
16 19 22 26 29 28 25 30 12 6 4 5 1 2 2 3 9 17 15 17 12 14 15 16 10 6 4 4 4 5 5 7 2 2 6 7 16 10 10 8 10 12 8 10 14
16 20 23 27 29 25 28 29 5 1 5 1 1 2 1 7 6 21 17 10 17 9 8 8 3 4 2 3 4 4 8 11 15 7 8 10 15 7 6 5 12 17 11 9 9
17 21 24 28 28 22 31 11 4 1 2 0 1 2 3 5 12 21 16 14 4 6 6 3 2 2 1 2 5 10 15 15 17 5 9 14 17 12 17 12 15 17 14 9 8
17 21 24 26 24 20 30 3 8 4 9 1 1 3 6 15 17 7 12 11 2 2 3 2 2 6 10 8 14 15 17 23 22 17 16 18 21 19 20 16 16 17 16 9 9
17 21 24 25 15 15 24 7 2 2 6 1 3 5 10 4 5 5 18 7 5 5 4 3 5 7 5 7 13 13 18 22 21 12 11 17 22 19 17 15 17 17 17 10 6
17 21 24 23 8 12 20 8 2 2 2 5 4 3 7 2 3 7 9 5 2 5 7 4 8 10 10 11 10 13 12 18 19 17 10 17 16 15 17 20 19 18 18 11 10
16 20 25 19 2 8 4 12 1 2 4 5 5 3 7 3 2 5 10 3 4 4 7 6 3 11 13 5 7 11 4 10 13 11 5 5 7 12 6 11 10 15 15 15 10
15 19 22 14 5 3 11 9 3 0 5 9 6 4 8 6 6 3 15 6 4 7 3 6 11 13 4 10 14 9 14 16 19 14 12 8 5 6 6 9 15 14 10 6 8
14 18 18 8 4 11 12 2 2 6 5 7 4 8 9 5 5 6 7 6 2 5 4 12 3 1 3 16 13 14 11 20 9 6 4 4 8 3 5 12 17 16 16 14 9
14 18 13 8 6 15 5 3 5 7 6 11 6 7 8 6 6 7 6 8 6 8 15 8 5 4 3 11 8 17 14 4 5 2 4 5 5 5 17 22 19 22 19 16 13
15 17 10 5 15 10 2 5 9 3 5 4 6 11 4 8 4 11 6 6 7 3 5 5 8 7 8 2 9 14 8 4 5 4 7 7 3 4 23 28 22 21 22 14 12
15 10 4 6 15 5 5 6 6 6 3 7 10 4 6 5 2 8 6 4 4 6 7 5 5 3 8 5 9 9 7 16 5 10 4 3 8 2 30 34 36 36 4 7 7
12 6 2 14 10 1 5 2 2 2 2 4 1 2 3 6 9 9 6 3 8 8 7 3 6 3 6 5 4 9 11 5 3 4 4 5 6 10 29 33 34 18 12 10 10
6 4 2 16 3 5 3 5 4 4 2 3 3 4 4 4 3 4 5 5 6 7 7 3 2 8 4 6 13 10 8 4 5 3 3 4 3 11 20 26 27 18 19 20 18
2 2 7 10 4 1 2 5 4 2 2 1 3 3 4 3 3 3 3 2 7 9 8 3 3 5 5 4 8 9 14 5 3 4 3 3 2 19 21 23 23 20 18 20 18
2 2 4 4 3 3 4 2 2 0 1 1 3 3 1 2 3 3 3 4 6 7 5 7 3 5 9 2 8 8 22 18 2 4 12 4 5 16 22 24 26 21 18 17 19
2 2 4 4 1 5 1 2 4 1 3 2 3 3 3 4 2 5 4 4 10 3 13 2 2 2 2 6 3 18 22 21 13 3 5 7 11 23 25 25 24 22 17 17 20
3 2 2 1 3 3 2 2 2 4 3 2 2 2 3 2 4 2 3 6 4 10 5 3 1 4 6 3 0 13 15 20 18 12 6 8 11 17 18 18 17 16 16 22 22
4 3 2 2 1 1 2 2 1 3 3 2 3 3 4 4 6 4 3 3 2 8 7 4 3 4 4 4 4 10 21 18 17 14 6 10 9 16 15 15 18 18 19 22 22
4 2 3 1 2 2 3 4 3 2 3 4 4 3 2 6 6 8 5 6 8 6 7 5 5 5 5 7 5 5 19 11 11 15 6 9 8 14 13 15 18 18 20 19 19
Wind_Direction
31 15 8 360 348 347 344 343 337 334 333 330 332 328 332 336 343 45 41 19 338 337 337 336 342 347 335 329 339 123 98 217 237 221 265 348 4 314 298 262 332 303 309 279 330
24 11 3 357 350 345 340 337 333 330 328 325 326 325 329 333 358 48 60 345 335 332 329 348 333 341 334 305 290 151 184 226 211 201 278 299 296 315 319 309 287 284 315 325 331
17 7 1 352 348 345 339 335 332 328 326 324 327 326 327 340 74 333 355 346 334 325 325 310 300 308 281 318 241 222 222 248 274 276 267 248 285 260 285 282 231 305 302 309 316
6 1 358 350 345 345 343 337 334 330 326 321 329 335 336 22 119 311 336 332 316 313 311 314 333 311 241 237 252 279 247 252 288 325 305 286 299 276 261 267 268 259 263 288 285
360 355 355 348 344 343 342 335 331 327 316 317 327 338 360 49 215 331 307 309 306 305 276 257 271 250 238 251 291 247 260 257 268 292 277 266 259 260 268 271 273 276 274 257 272
355 352 352 348 342 342 341 336 331 330 319 315 334 342 56 96 239 305 302 302 301 291 268 214 238 226 254 230 206 234 267 276 284 278 268 266 268 217 249 250 259 259 262 269 275
352 349 350 347 342 341 341 338 336 341 351 9 356 11 63 165 260 307 307 300 307 279 253 250 239 197 212 274 258 270 282 284 266 261 256 227 264 235 248 255 257 262 256 256 257
349 347 350 347 342 342 343 338 346 6 36 2 43 18 211 266 316 328 316 313 300 294 260 274 245 212 190 260 296 281 255 283 136 181 242 162 272 270 243 242 265 277 262 254 258
346 348 350 346 343 343 346 337 5 21 337 8 289 64 24 319 334 335 321 297 310 303 281 267 168 210 218 257 298 195 267 264 294 239 252 193 266 232 258 255 282 283 272 255 263
344 349 349 346 345 345 350 344 29 227 12 172 22 32 4 305 324 322 334 307 281 313 339 359 49 250 296 131 276 287 287 284 283 283 270 271 256 263 276 266 253 265 269 248 255
344 348 349 348 345 353 360 5 15 345 35 103 277 257 282 311 322 329 339 313 306 57 321 303 295 253 274 244 257 273 281 284 280 283 279 267 262 258 261 256 249 251 259 239 238
344 346 350 349 346 357 29 64 128 281 319 302 250 271 271 302 311 302 356 3 358 318 313 330 256 270 287 282 285 283 282 280 282 284 276 271 268 267 256 250 239 241 251 239 215
344 346 348 350 357 4 51 47 345 264 266 300 229 274 286 8 294 310 7 318 292 318 319 265 274 311 333 314 291 282 271 282 279 307 262 271 277 261 254 245 246 242 240 236 206
343 345 348 354 19 5 55 356 155 226 58 313 345 354 354 343 298 347 353 322 342 311 317 271 286 322 316 306 350 301 312 291 288 306 296 76 298 300 260 245 237 247 249 236 208
339 342 348 1 351 39 320 336 165 321 31 318 326 336 340 54 291 305 351 3 329 311 49 274 310 331 313 327 332 267 292 284 278 270 289 271 236 279 15 10 357 352 322 264 229
334 339 342 347 0 343 338 99 128 39 305 341 353 347 5 338 326 314 3 348 299 324 238 292 295 5 277 317 301 275 295 294 269 243 250 259 198 324 24 345 329 324 321 320 272
331 335 337 340 343 329 349 79 31 92 359 315 331 351 346 313 310 18 353 19 32 358 348 330 334 314 318 329 319 333 335 314 349 8 228 351 190 57 5 353 333 318 307 298 296
328 330 327 329 333 331 69 50 56 239 248 339 331 320 358 344 341 341 8 360 46 6 320 6 329 19 319 261 309 321 332 319 310 313 313 274 304 123 3 347 328 308 289 263 268
328 324 316 323 333 338 71 47 199 205 267 329 322 17 321 346 313 358 12 323 43 360 2 327 281 270 295 311 31 317 337 304 254 259 238 245 358 299 348 340 341 329 137 192 240
334 326 304 334 334 43 69 222 191 235 5 53 325 91 307 322 353 4 351 325 350 4 345 287 295 316 311 9 21 346 348 348 339 317 325 42 61 346 344 337 328 357 48 45 42
348 29 356 341 350 46 108 222 261 242 130 123 247 299 275 303 314 316 298 307 24 316 320 295 185 297 11 9 345 6 358 316 290 273 336 334 88 360 347 332 325 32 55 64 65
61 15 342 353 41 3 113 188 220 311 107 288 221 226 208 313 316 302 305 276 8 326 334 332 273 289 255 270 14 29 2 337 264 28 320 306 75 8 351 338 348 20 41 59 60
104 248 343 22 87 325 311 284 266 86 256 249 276 176 96 266 348 242 287 268 357 333 336 352 331 329 349 334 10 21 11 6 358 354 14 21 329 348 350 355 3 9 29 51 60
76 5 333 47 97 123 107 319 321 300 260 233 267 58 25 1 291 291 306 314 340 331 359 15 295 309 294 263 325 10 17 21 24 26 319 33 337 3 354 357 354 2 21 45 55
34 240 223 316 343 93 95 153 320 5 228 188 295 168 153 332 314 286 286 304 323 1 354 46 325 335 280 235 287 23 20 20 28 8 37 334 26 7 0 349 350 360 22 44 49
127 142 314 129 225 121 285 238 271 303 221 272 173 191 191 190 188 269 349 346 327 331 343 5 317 6 295 309 278 5 22 23 23 12 8 355 37 2 360 3 11 19 26 38 40
133 124 108 336 81 81 220 179 215 151 238 239 246 140 187 233 212 228 225 267 278 308 327 344 327 7 310 334 345 356 10 15 32 30 341 21 330 335 6 16 20 17 26 31 30
Height
826 827 825 823 823 820 817 814 812 810 806 804 800 798 793 791 788 787 788 791 789 787 784 781 780 778 775 775 774 776 789 797 780 769 762 761 766 759 756 755 752 745 744 740 735
826 827 825 824 822 820 817 813 810 808 805 802 799 796 792 790 788 789 790 790 789 787 785 784 782 780 780 777 775 779 793 781 767 763 765 764 764 762 759 754 751 748 741 738 735
827 826 824 824 820 817 814 811 808 806 802 801 797 795 791 788 789 791 790 789 789 787 785 784 783 782 781 777 775 774 780 770 765 764 764 763 762 758 758 751 748 746 743 738 735
829 826 823 822 819 814 811 809 806 803 801 799 795 792 790 788 788 789 789 788 787 786 785 783 782 783 782 780 774 778 770 768 765 763 764 765 761 760 758 749 745 743 740 737 735
829 826 823 820 818 814 809 806 802 799 797 795 793 791 790 790 790 789 788 787 786 785 784 783 782 781 782 779 778 776 769 765 765 766 763 761 759 756 749 741 740 738 736 735 731
828 826 822 819 817 812 807 804 800 795 791 791 790 790 790 789 788 787 786 785 784 783 781 780 779 777 778 777 776 765 765 765 762 759 756 758 748 753 734 736 733 732 730 729 726
829 827 821 817 815 810 805 802 797 793 791 791 790 791 792 791 787 786 785 783 781 780 778 774 774 777 773 773 767 764 765 758 756 749 750 747 748 744 734 732 731 726 728 725 722
829 826 821 818 814 808 804 799 794 792 791 790 790 790 791 786 786 784 782 780 778 776 774 771 770 771 771 766 765 767 766 760 743 743 741 746 739 732 728 728 727 725 724 722 718
830 825 820 817 812 806 801 795 794 793 791 789 791 791 788 786 784 783 781 778 775 772 771 770 770 771 769 770 772 767 760 755 743 737 737 739 732 726 722 725 724 718 717 717 714
829 824 820 816 810 806 800 794 793 793 791 790 790 792 788 789 784 782 779 776 775 773 771 770 773 773 774 775 780 760 756 749 744 736 732 737 727 723 718 721 719 714 710 713 711
828 824 820 815 810 807 800 795 799 798 793 799 800 798 795 789 786 782 779 775 773 773 776 773 778 778 768 767 762 758 756 750 736 733 733 729 719 717 713 712 710 707 703 707 706
827 824 820 815 810 809 805 809 816 818 812 801 800 797 793 792 792 784 781 779 778 779 777 779 776 765 761 759 757 755 753 741 724 722 725 718 713 706 703 701 700 699 697 700 701
827 824 820 814 810 810 812 817 816 817 819 801 797 795 794 792 792 788 784 780 779 779 776 781 767 762 760 760 757 752 751 737 734 723 721 717 709 696 689 687 687 686 685 690 694
827 824 820 815 815 814 814 815 816 817 830 801 796 795 795 791 792 787 784 784 780 781 778 775 763 762 761 759 756 751 735 735 732 731 725 717 711 685 684 684 685 683 683 683 687
826 824 820 815 817 817 819 815 815 818 844 802 803 797 799 799 799 788 787 783 785 782 790 775 765 763 768 756 754 749 735 736 730 728 726 705 720 695 689 694 698 694 688 684 684
826 823 819 819 818 818 815 813 817 834 836 811 809 812 809 805 802 797 795 790 786 784 778 772 764 765 765 753 749 744 743 720 716 720 729 695 703 693 709 720 708 701 697 690 682
825 823 820 819 819 817 814 814 832 850 825 821 823 818 820 813 805 804 804 804 803 815 790 781 770 765 762 763 742 744 743 745 750 740 723 693 701 707 721 716 721 709 701 692 684
824 822 820 819 818 816 814 822 849 879 869 832 829 824 824 820 810 811 809 812 808 809 812 819 798 777 769 773 766 754 752 742 751 714 710 690 696 691 716 714 716 703 689 685 679
821 820 818 819 817 814 818 856 862 867 844 843 837 849 844 829 828 820 821 820 816 815 816 813 804 771 770 767 767 763 760 758 756 729 730 697 717 698 724 716 705 691 663 674 673
819 817 817 818 816 815 834 843 866 845 843 851 863 855 868 849 837 831 826 814 816 813 812 810 807 773 766 770 767 771 769 770 752 744 734 702 741 771 755 746 724 678 673 678 680
821 824 819 817 816 823 852 879 861 846 844 856 867 860 860 854 843 843 829 817 817 816 814 809 814 785 778 793 786 781 783 775 767 750 738 726 762 780 777 770 748 693 687 685 690
822 835 817 814 833 874 863 871 847 844 842 844 848 850 865 860 861 840 830 824 818 819 817 811 812 809 805 793 784 786 795 787 780 752 764 752 761 781 784 774 750 715 707 705 707
831 830 817 814 851 866 866 852 847 843 843 842 844 846 860 860 859 851 830 818 818 820 819 817 810 819 792 786 782 788 793 789 771 775 787 784 784 791 790 777 762 743 730 725 721
830 839 829 829 846 849 860 860 855 844 844 842 842 843 860 868 854 858 833 820 820 820 813 817 817 812 815 811 809 799 800 799 799 815 805 804 811 800 798 793 781 765 753 744 736
833 847 849 848 852 846 851 855 852 850 844 842 843 856 857 869 869 868 840 827 820 822 821 820 834 828 823 818 808 810 810 811 816 819 815 814 814 816 817 812 801 789 772 756 753
835 842 851 858 850 844 848 851 841 840 842 846 855 858 858 860 848 855 839 836 836 826 826 827 837 837 827 820 810 801 808 811 818 824 820 815 813 822 823 818 809 799 787 776 773
827 830 832 852 850 853 846 837 839 841 836 837 840 847 859 848 840 838 838 838 839 840 831 833 825 828 825 823 811 809 820 824 829 836 835 835 838 831 829 827 820 813 804 799 795